Hourly Data Report for October 01, 2017

All times are specified in Local Standard Time (LST). Add 1 hour to adjust for Daylight Saving Time where and when it is observed.

KITCHENER/WATERLOO
ONTARIO

43°27'39.000" N
80°22'43.000" W
321.60 m
6144239
71368
YKF

Download Data

Hourly Data (October 2017)
Hourly Data Report for October 1, 2017
Temp Definition
°C
Dew Point Temp Definition
°C
Rel Hum Definition
%
Wind Dir Definition
10's deg

Wind Spd Definition
km/h
Visibility Definition
km
Stn Press Definition
kPa
Hmdx Definition


Wind Chill Definition


Weather Definition


TIME
00:00 Legend Double Dagger 2.2 1.8 97 33 4 16.1 99.12     LegendNANA
01:00 Legend Double Dagger 2.2 2.1 99   0 16.1 99.10     LegendNANA
02:00 Legend Double Dagger 1.4 1.4 100 32 4 14.5 99.09     LegendNANA
03:00 Legend Double Dagger 1.2 1.2 100   0 0.6 99.10     Fog
04:00 Legend Double Dagger 0.5 0.5 100 LegendMM 4 3.6 99.10     Fog
05:00 Legend Double Dagger -0.1 -0.1 100   0 2.0 99.08     Fog
06:00 Legend Double Dagger -0.9 -0.9 100 32 4 12.9 99.10   -2 LegendNANA
07:00 Legend Double Dagger 0.8 0.8 100 36 4 16.1 99.13     LegendNANA
08:00 Legend Double Dagger 4.9 4.8 99   0 16.1 99.17     LegendNANA
09:00 Legend Double Dagger 10.0 5.7 75 LegendMM 4 16.1 99.15     LegendNANA
10:00 Legend Double Dagger 13.3 5.7 60 20 5 16.1 99.12     LegendNANA
11:00 Legend Double Dagger 15.2 5.4 52 19 9 16.1 99.08     LegendNANA
12:00 Legend Double Dagger 16.5 5.4 47 LegendMM 8 16.1 99.00     LegendNANA
13:00 Legend Double Dagger 17.2 5.2 45 LegendMM 5 16.1 98.94     LegendNANA
14:00 Legend Double Dagger 17.8 5.0 43 LegendMM 8 16.1 98.87     LegendNANA
15:00 Legend Double Dagger 17.4 4.3 41 LegendMM 9 9.7 98.79     Haze
16:00 Legend Double Dagger 17.9 4.5 41 LegendMM 5 16.1 98.73     LegendNANA
17:00 Legend Double Dagger 17.3 4.0 41 LegendMM 4 16.1 98.73     LegendNANA
18:00 Legend Double Dagger 12.9 5.6 61 11 8 16.1 98.73     LegendNANA
19:00 Legend Double Dagger 10.4 6.4 76 13 11 16.1 98.76     LegendNANA
20:00 Legend Double Dagger 8.6 6.7 88 11 8 16.1 98.79     LegendNANA
21:00 Legend Double Dagger 7.8 6.6 92 8 5 16.1 98.79     LegendNANA
22:00 Legend Double Dagger 6.2 5.9 98   0 14.5 98.83     LegendNANA
23:00 Legend Double Dagger 4.4 4.3 99 LegendMM 4 1.2 98.83     Rain,Fog

Notes on Data Quality.

Legend

  • E = Estimated
  • M = Missing
  • NA = Not Available
  • ‡ = Partner data that is not subject to review by the National Climate Archives
Date modified: